Weather in Malaya Sazanka

Russia / Amur Oblast     51°13′38″N   128°04′21″E
temp.,
°C
wind,
m/s
gust,
m/s
humid.,
%
clouds,
%
prec.,
mm/h
press.,
hPa
HPBL,
m
21 january, thu
thu2100:00−22nnw369798 0.1 1018175
03:00−26nw5109185 0.1 1021271
06:00−29nw411890 0.0 1023298
09:00−29wnw410890 0.0 1025237
12:00−24wnw49780 0.0 1026546
15:00−22nw36800 0.0 1025571
18:00−26wnw12900 0.0 102719
21:00−28wnw12910 0.0 102719
22 january, fri
fri2200:00−29nw12930 0.0 102719
03:00−30wnw22920 0.0 102729
06:00−31nw22905 0.0 102723
09:00−30nw228812 0.0 102929
12:00−23nw24790 0.0 1029319
15:00−21wnw13800 0.0 1029433
18:00−27w119213 0.0 103019
21:00−28ssw12926 0.0 103019
23 january, sat
sat2300:00−29sse229720 0.0 103019
03:00−31sse239619 0.0 103131
06:00−30sse249567 0.0 102991
09:00−29sse259583 0.0 1029130
12:00−25sse3594100 0.0 1027270
15:00−22sse2493100 0.0 1025317
18:00−23se1198100 0.0 102520
21:00−22n1299100 0.3 102678
24 january, sun
sun2400:00−23n3598100 0.3 1028176
03:00−26nnw369482 0.3 1031151
06:00−28nnw389129 0.0 1033218
09:00−29nnw379015 0.0 1036201
12:00−24nnw24840 0.0 1038319
15:00−22nnw248349 0.0 1038382
18:00−24n1291100 0.0 103920
21:00−25nne129294 0.0 104019
25 january, mon
mon2500:00−24nne119195 0.0 104040
03:00−24ne138998 0.0 1040153
06:00−25ne1291100 0.0 103891
09:00−25ne2389100 0.0 1038117
12:00−22ene2484100 0.0 1035239
15:00−21ene2489100 0.0 1031273
18:00−22e4994100 0.0 1026243
21:00−20se2994100 0.0 1021396